| time (UTC) | temp F | wind direction | speed MPH | gust MPH | rain 1hr in | rain 24hr in | rain mn in | humidity % | barometer mb |
| 20260831183138 | 92 | 173 | 2.0 | 9.0 | 0.00 | 0.00 | 0.00 | 53 | 1017.8 |
| 20260831182400 | 92 | 209 | 2.0 | 9.0 | 0.00 | 0.00 | 0.00 | 54 | 1017.9 |
| 20260831182124 | 91 | 173 | 2.0 | 5.0 | 0.00 | 0.00 | 0.00 | 57 | 1017.9 |
| 20260831181348 | 91 | 88 | 2.0 | 8.0 | 0.00 | 0.00 | 0.00 | 58 | 1017.9 |
| 20260831180842 | 91 | 150 | 2.0 | 8.0 | 0.00 | 0.00 | 0.00 | 59 | 1018.1 |
| 20260831180611 | 91 | 131 | 2.0 | 8.0 | 0.00 | 0.00 | 0.00 | 58 | 1018.2 |
| 20260831175830 | 91 | 171 | 2.0 | 9.0 | 0.00 | 0.00 | 0.00 | 58 | 1018.1 |
| 20260831175324 | 91 | 203 | 3.0 | 12.0 | 0.00 | 0.00 | 0.00 | 59 | 1018.2 |
| 20260831174817 | 91 | 186 | 3.0 | 12.0 | 0.00 | 0.00 | 0.00 | 58 | 1018.4 |
| 20260831174311 | 90 | 88 | 3.0 | 8.0 | 0.00 | 0.00 | 0.00 | 61 | 1018.3 |
| 20260831173805 | 90 | 128 | 3.0 | 8.0 | 0.00 | 0.00 | 0.00 | 62 | 1018.3 |
| 20260831172753 | 90 | 213 | 2.0 | 7.0 | 0.00 | 0.00 | 0.00 | 64 | 1018.4 |
| 20260831171741 | 89 | 187 | 2.0 | 7.0 | 0.00 | 0.00 | 0.00 | 64 | 1018.4 |
| 20260831171235 | 89 | 76 | 2.0 | 7.0 | 0.00 | 0.00 | 0.00 | 64 | 1018.4 |
| 20260831171000 | 89 | 186 | 2.0 | 7.0 | 0.00 | 0.00 | 0.00 | 64 | 1018.4 |
| 20260831165717 | 89 | 241 | 2.0 | 7.0 | 0.00 | 0.00 | 0.00 | 65 | 1018.6 |
| 20260831165212 | 89 | 159 | 2.0 | 8.0 | 0.00 | 0.00 | 0.00 | 64 | 1018.6 |
| 20260831164706 | 89 | 165 | 2.0 | 8.0 | 0.00 | 0.00 | 0.00 | 65 | 1018.6 |
| 20260831164159 | 88 | 122 | 2.0 | 9.0 | 0.00 | 0.00 | 0.00 | 65 | 1018.6 |
| 20260831163924 | 88 | 155 | 3.0 | 10.0 | 0.00 | 0.00 | 0.00 | 66 | 1018.5 |
| 20260831163147 | 88 | 166 | 3.0 | 10.0 | 0.00 | 0.00 | 0.00 | 67 | 1018.6 |
| 20260831162641 | 88 | 82 | 2.0 | 8.0 | 0.00 | 0.00 | 0.00 | 68 | 1018.6 |
| 20260831162136 | 88 | 269 | 2.0 | 8.0 | 0.00 | 0.00 | 0.00 | 67 | 1018.7 |
| 20260831161629 | 87 | 113 | 2.0 | 7.0 | 0.00 | 0.00 | 0.00 | 69 | 1018.6 |
| 20260831161124 | 87 | 98 | 2.0 | 8.0 | 0.00 | 0.00 | 0.00 | 68 | 1018.6 |
| 20260831160618 | 87 | 157 | 2.0 | 8.0 | 0.00 | 0.00 | 0.00 | 69 | 1018.5 |
| 20260831160117 | 87 | 55 | 2.0 | 7.0 | 0.00 | 0.00 | 0.00 | 69 | 1018.5 |
| 20260831155849 | 87 | 188 | 2.0 | 7.0 | 0.00 | 0.00 | 0.00 | 70 | 1018.5 |
| 20260831155117 | 87 | 175 | 1.0 | 7.0 | 0.00 | 0.00 | 0.00 | 70 | 1018.5 |
| 20260831154849 | 86 | 164 | 1.0 | 7.0 | 0.00 | 0.00 | 0.00 | 72 | 1018.6 |
| 20260831154117 | 86 | 153 | 2.0 | 7.0 | 0.00 | 0.00 | 0.00 | 72 | 1018.5 |
| 20260831153847 | 86 | 163 | 3.0 | 9.0 | 0.00 | 0.00 | 0.00 | 71 | 1018.6 |
| 20260831153117 | 86 | 178 | 2.0 | 9.0 | 0.00 | 0.00 | 0.00 | 72 | 1018.4 |
| 20260831152848 | 86 | 129 | 1.0 | 6.0 | 0.00 | 0.00 | 0.00 | 73 | 1018.4 |
| 20260831152117 | 86 | 193 | 1.0 | 5.0 | 0.00 | 0.00 | 0.00 | 73 | 1018.4 |
| 20260831151617 | 85 | 144 | 1.0 | 7.0 | 0.00 | 0.00 | 0.00 | 74 | 1018.3 |
| 20260831151115 | 85 | 94 | 2.0 | 8.0 | 0.00 | 0.00 | 0.00 | 74 | 1018.4 |
| 20260831150845 | 85 | 155 | 2.0 | 8.0 | 0.00 | 0.00 | 0.00 | 74 | 1018.4 |
| 20260831150111 | 85 | 192 | 2.0 | 7.0 | 0.00 | 0.00 | 0.00 | 74 | 1018.3 |
| 20260831145611 | 84 | 159 | 1.0 | 6.0 | 0.00 | 0.00 | 0.00 | 76 | 1018.3 |
| 20260831145111 | 83 | 247 | 2.0 | 6.0 | 0.00 | 0.00 | 0.00 | 77 | 1018.3 |
| 20260831144610 | 83 | 221 | 2.0 | 7.0 | 0.00 | 0.00 | 0.00 | 78 | 1018.3 |
| 20260831144111 | 82 | 163 | 2.0 | 7.0 | 0.00 | 0.00 | 0.00 | 79 | 1018.4 |
| 20260831143610 | 82 | 169 | 2.0 | 6.0 | 0.00 | 0.00 | 0.00 | 80 | 1018.4 |
| 20260831143110 | 81 | 169 | 1.0 | 6.0 | 0.00 | 0.00 | 0.00 | 81 | 1018.3 |
| 20260831142610 | 81 | 169 | 1.0 | 6.0 | 0.00 | 0.00 | 0.00 | 81 | 1018.3 |
| 20260831142111 | 81 | 190 | 1.0 | 5.0 | 0.00 | 0.00 | 0.00 | 82 | 1018.2 |
| 20260831141609 | 81 | 172 | 1.0 | 5.0 | 0.00 | 0.00 | 0.00 | 82 | 1018.3 |
| 20260831141109 | 80 | 171 | 1.0 | 6.0 | 0.00 | 0.00 | 0.00 | 83 | 1018.2 |
| 20260831140609 | 80 | 169 | 1.0 | 6.0 | 0.00 | 0.00 | 0.00 | 84 | 1018.1 |
| 20260831140339 | 80 | 168 | 1.0 | 5.0 | 0.00 | 0.00 | 0.00 | 85 | 1017.9 |
| 20260831135840 | 79 | 155 | 1.0 | 5.0 | 0.00 | 0.00 | 0.00 | 86 | 1018.1 |
| 20260831135109 | 79 | 153 | 1.0 | 5.0 | 0.00 | 0.00 | 0.00 | 87 | 1018.1 |
| 20260831134837 | 79 | 153 | 1.0 | 6.0 | 0.00 | 0.00 | 0.00 | 87 | 1018.1 |
| 20260831134107 | 79 | 152 | 1.0 | 6.0 | 0.00 | 0.00 | 0.00 | 87 | 1018.1 |
| 20260831133835 | 79 | 152 | 1.0 | 5.0 | 0.00 | 0.00 | 0.00 | 87 | 1017.9 |
| 20260831133105 | 79 | 148 | 1.0 | 5.0 | 0.00 | 0.00 | 0.00 | 88 | 1017.9 |
| 20260831132607 | 79 | 148 | 1.0 | 4.0 | 0.00 | 0.00 | 0.00 | 88 | 1017.8 |
| 20260831132106 | 79 | 148 | 1.0 | 3.0 | 0.00 | 0.00 | 0.00 | 88 | 1017.8 |
| 20260831131602 | 78 | 148 | 0.0 | 3.0 | 0.00 | 0.00 | 0.00 | 88 | 1017.8 |
| 20260831131055 | 78 | 148 | 0.0 | 3.0 | 0.00 | 0.00 | 0.00 | 88 | 1017.8 |
| 20260831130549 | 78 | 148 | 0.0 | 3.0 | 0.00 | 0.00 | 0.00 | 89 | 1017.8 |
| 20260831130043 | 78 | 148 | 0.0 | 3.0 | 0.00 | 0.00 | 0.00 | 89 | 1017.7 |
| 20260831125537 | 78 | 148 | 0.0 | 2.0 | 0.00 | 0.00 | 0.00 | 89 | 1017.7 |
| 20260831125030 | 78 | 148 | 1.0 | 3.0 | 0.00 | 0.00 | 0.00 | 89 | 1017.6 |
| 20260831124524 | 78 | 148 | 1.0 | 3.0 | 0.00 | 0.00 | 0.00 | 89 | 1017.6 |
| 20260831124019 | 78 | 147 | 1.0 | 4.0 | 0.00 | 0.00 | 0.00 | 89 | 1017.5 |
| 20260831123513 | 78 | 213 | 1.0 | 4.0 | 0.00 | 0.00 | 0.00 | 88 | 1017.4 |
| 20260831123237 | 78 | 213 | 1.0 | 3.0 | 0.00 | 0.00 | 0.00 | 88 | 1017.4 |
| 20260831122501 | 78 | 213 | 1.0 | 3.0 | 0.00 | 0.00 | 0.00 | 88 | 1017.4 |
| 20260831121955 | 78 | 213 | 1.0 | 3.0 | 0.00 | 0.00 | 0.00 | 88 | 1017.3 |
| 20260831121449 | 78 | 213 | 1.0 | 4.0 | 0.00 | 0.00 | 0.00 | 88 | 1017.3 |
| 20260831120942 | 78 | 213 | 1.0 | 4.0 | 0.00 | 0.00 | 0.00 | 88 | 1017.4 |
| 20260831120436 | 78 | 213 | 1.0 | 4.0 | 0.00 | 0.00 | 0.00 | 88 | 1017.3 |
| 20260831120201 | 78 | 213 | 1.0 | 4.0 | 0.00 | 0.00 | 0.00 | 88 | 1017.3 |
| 20260831115425 | 78 | 213 | 1.0 | 3.0 | 0.00 | 0.00 | 0.00 | 88 | 1017.2 |
| 20260831114919 | 78 | 213 | 1.0 | 4.0 | 0.00 | 0.00 | 0.00 | 88 | 1017.3 |
| 20260831114413 | 78 | 215 | 1.0 | 4.0 | 0.00 | 0.00 | 0.00 | 88 | 1017.3 |
| 20260831113907 | 78 | 219 | 1.0 | 4.0 | 0.00 | 0.00 | 0.00 | 88 | 1017.3 |
| 20260831113401 | 78 | 221 | 0.0 | 4.0 | 0.00 | 0.00 | 0.00 | 88 | 1017.1 |
| 20260831112854 | 78 | 223 | 1.0 | 4.0 | 0.00 | 0.00 | 0.00 | 88 | 1017.2 |
| 20260831112348 | 78 | 223 | 1.0 | 4.0 | 0.00 | 0.00 | 0.00 | 87 | 1017.2 |
| 20260831111843 | 78 | 223 | 0.0 | 4.0 | 0.00 | 0.00 | 0.00 | 87 | 1017.3 |
| 20260831111609 | 78 | 224 | 1.0 | 5.0 | 0.00 | 0.00 | 0.00 | 87 | 1017.2 |
| 20260831110830 | 78 | 227 | 2.0 | 5.0 | 0.00 | 0.00 | 0.00 | 87 | 1017.3 |
| 20260831110324 | 78 | 194 | 1.0 | 5.0 | 0.00 | 0.00 | 0.00 | 87 | 1017.3 |
| 20260831110051 | 78 | 196 | 1.0 | 3.0 | 0.00 | 0.00 | 0.00 | 87 | 1017.2 |
| 20260831105312 | 78 | 196 | 1.0 | 3.0 | 0.00 | 0.00 | 0.00 | 87 | 1017.4 |
| 20260831104806 | 78 | 194 | 1.0 | 5.0 | 0.00 | 0.00 | 0.00 | 87 | 1017.3 |
| 20260831104300 | 78 | 195 | 2.0 | 7.0 | 0.00 | 0.00 | 0.00 | 86 | 1017.4 |
| 20260831103754 | 78 | 170 | 2.0 | 7.0 | 0.00 | 0.00 | 0.00 | 86 | 1017.4 |
| 20260831103249 | 78 | 222 | 2.0 | 7.0 | 0.00 | 0.00 | 0.00 | 86 | 1017.3 |
| 20260831102743 | 78 | 184 | 2.0 | 7.0 | 0.00 | 0.00 | 0.00 | 86 | 1017.4 |
| 20260831102237 | 78 | 165 | 2.0 | 7.0 | 0.00 | 0.00 | 0.00 | 86 | 1017.4 |
| 20260831102001 | 78 | 159 | 2.0 | 7.0 | 0.00 | 0.00 | 0.00 | 86 | 1017.4 |
| 20260831101225 | 78 | 192 | 2.0 | 7.0 | 0.00 | 0.00 | 0.00 | 86 | 1017.4 |
| 20260831100216 | 78 | 180 | 1.0 | 7.0 | 0.00 | 0.00 | 0.00 | 86 | 1017.4 |
| 20260831095714 | 78 | 179 | 2.0 | 7.0 | 0.00 | 0.00 | 0.00 | 86 | 1017.4 |
| 20260831095214 | 78 | 155 | 2.0 | 10.0 | 0.00 | 0.00 | 0.00 | 86 | 1017.4 |
| 20260831094714 | 78 | 169 | 2.0 | 10.0 | 0.00 | 0.00 | 0.00 | 86 | 1017.4 |
| 20260831094444 | 78 | 150 | 2.0 | 9.0 | 0.00 | 0.00 | 0.00 | 86 | 1017.4 |
| 20260831093714 | 78 | 226 | 2.0 | 8.0 | 0.00 | 0.00 | 0.00 | 86 | 1017.4 |
| 20260831093214 | 78 | 229 | 3.0 | 8.0 | 0.00 | 0.00 | 0.00 | 86 | 1017.3 |
| 20260831092714 | 78 | 194 | 2.0 | 9.0 | 0.00 | 0.00 | 0.00 | 86 | 1017.3 |
| 20260831092444 | 78 | 169 | 2.0 | 9.0 | 0.00 | 0.00 | 0.00 | 86 | 1017.3 |
| 20260831091717 | 78 | 197 | 2.0 | 9.0 | 0.00 | 0.00 | 0.00 | 86 | 1017.3 |
| 20260831091214 | 78 | 207 | 2.0 | 9.0 | 0.00 | 0.00 | 0.00 | 86 | 1017.3 |
| 20260831090714 | 78 | 162 | 2.0 | 7.0 | 0.00 | 0.00 | 0.00 | 86 | 1017.3 |
| 20260831090214 | 78 | 162 | 3.0 | 9.0 | 0.00 | 0.00 | 0.00 | 86 | 1017.3 |
| 20260831085714 | 78 | 164 | 2.0 | 9.0 | 0.00 | 0.00 | 0.00 | 86 | 1017.3 |
| 20260831085212 | 78 | 145 | 2.0 | 7.0 | 0.00 | 0.00 | 0.00 | 86 | 1017.3 |
| 20260831084710 | 78 | 225 | 2.0 | 7.0 | 0.00 | 0.00 | 0.00 | 86 | 1017.3 |
| 20260831084210 | 78 | 179 | 2.0 | 6.0 | 0.00 | 0.00 | 0.00 | 86 | 1017.4 |
| 20260831083706 | 78 | 179 | 2.0 | 6.0 | 0.00 | 0.00 | 0.00 | 86 | 1017.3 |
| 20260831083205 | 78 | 186 | 2.0 | 7.0 | 0.00 | 0.00 | 0.00 | 86 | 1017.3 |
| 20260831082705 | 78 | 233 | 2.0 | 7.0 | 0.00 | 0.00 | 0.00 | 86 | 1017.4 |
| 20260831082206 | 78 | 161 | 1.0 | 7.0 | 0.00 | 0.00 | 0.00 | 86 | 1017.4 |
| 20260831081706 | 78 | 167 | 1.0 | 7.0 | 0.00 | 0.00 | 0.00 | 86 | 1017.4 |
| 20260831081206 | 78 | 155 | 2.0 | 7.0 | 0.00 | 0.00 | 0.00 | 86 | 1017.4 |
| 20260831080706 | 78 | 274 | 2.0 | 7.0 | 0.00 | 0.00 | 0.00 | 86 | 1017.5 |
| 20260831080437 | 78 | 159 | 1.0 | 6.0 | 0.00 | 0.00 | 0.00 | 85 | 1017.4 |
| 20260831075705 | 78 | 159 | 1.0 | 6.0 | 0.00 | 0.00 | 0.00 | 85 | 1017.5 |
| 20260831075202 | 78 | 159 | 2.0 | 6.0 | 0.00 | 0.00 | 0.00 | 85 | 1017.5 |
| 20260831074702 | 78 | 159 | 2.0 | 6.0 | 0.00 | 0.00 | 0.00 | 85 | 1017.5 |
| 20260831074433 | 78 | 169 | 2.0 | 7.0 | 0.00 | 0.00 | 0.00 | 84 | 1017.5 |
| 20260831073702 | 78 | 171 | 2.0 | 7.0 | 0.00 | 0.00 | 0.00 | 84 | 1017.5 |
| 20260831073202 | 79 | 178 | 2.0 | 5.0 | 0.00 | 0.00 | 0.00 | 84 | 1017.5 |
| 20260831072933 | 79 | 168 | 2.0 | 6.0 | 0.00 | 0.00 | 0.00 | 83 | 1017.6 |
| 20260831072202 | 79 | 167 | 2.0 | 6.0 | 0.00 | 0.00 | 0.00 | 83 | 1017.6 |
| 20260831071933 | 79 | 165 | 2.0 | 6.0 | 0.00 | 0.00 | 0.00 | 83 | 1017.5 |
| 20260831071200 | 79 | 163 | 1.0 | 6.0 | 0.00 | 0.00 | 0.00 | 83 | 1017.6 |
| 20260831070701 | 79 | 164 | 1.0 | 6.0 | 0.00 | 0.00 | 0.00 | 82 | 1017.6 |
| 20260831070155 | 79 | 164 | 1.0 | 5.0 | 0.00 | 0.00 | 0.00 | 82 | 1017.5 |
| 20260831065649 | 79 | 163 | 1.0 | 10.0 | 0.00 | 0.00 | 0.00 | 82 | 1017.6 |
| 20260831065144 | 79 | 164 | 2.0 | 10.0 | 0.00 | 0.00 | 0.00 | 81 | 1017.6 |
| 20260831064638 | 79 | 153 | 2.0 | 8.0 | 0.00 | 0.00 | 0.00 | 81 | 1017.6 |
| 20260831064132 | 80 | 159 | 2.0 | 6.0 | 0.00 | 0.00 | 0.00 | 80 | 1017.6 |
| 20260831063625 | 80 | 178 | 2.0 | 6.0 | 0.00 | 0.00 | 0.00 | 80 | 1017.7 |
| 20260831063352 | 80 | 164 | 2.0 | 8.0 | 0.00 | 0.00 | 0.00 | 80 | 1017.6 |
| 20260831062613 | 80 | 159 | 2.0 | 8.0 | 0.00 | 0.00 | 0.00 | 79 | 1017.6 |
| 20260831062107 | 80 | 173 | 2.0 | 8.0 | 0.00 | 0.00 | 0.00 | 79 | 1017.5 |
| 20260831061601 | 80 | 171 | 1.0 | 8.0 | 0.00 | 0.00 | 0.00 | 79 | 1017.7 |
| 20260831061056 | 80 | 218 | 1.0 | 7.0 | 0.00 | 0.00 | 0.00 | 78 | 1017.5 |
| 20260831060044 | 80 | 144 | 1.0 | 8.0 | 0.00 | 0.00 | 0.00 | 77 | 1017.5 |
| 20260831055538 | 81 | 98 | 1.0 | 8.0 | 0.00 | 0.00 | 0.00 | 76 | 1017.5 |
| 20260831055031 | 81 | 154 | 2.0 | 6.0 | 0.00 | 0.00 | 0.00 | 76 | 1017.6 |
| 20260831054526 | 81 | 162 | 2.0 | 9.0 | 0.00 | 0.00 | 0.00 | 76 | 1017.6 |
| 20260831054250 | 81 | 157 | 2.0 | 9.0 | 0.00 | 0.00 | 0.00 | 75 | 1017.5 |
| 20260831053514 | 81 | 167 | 2.0 | 10.0 | 0.00 | 0.00 | 0.00 | 74 | 1017.4 |
| 20260831053007 | 82 | 144 | 3.0 | 10.0 | 0.00 | 0.00 | 0.00 | 73 | 1017.4 |
| 20260831052501 | 82 | 102 | 2.0 | 8.0 | 0.00 | 0.00 | 0.00 | 72 | 1017.3 |
| 20260831052227 | 82 | 158 | 2.0 | 9.0 | 0.00 | 0.00 | 0.00 | 72 | 1017.3 |
| 20260831051449 | 82 | 149 | 2.0 | 9.0 | 0.00 | 0.00 | 0.00 | 71 | 1017.2 |
| 20260831050437 | 82 | 165 | 1.0 | 6.0 | 0.00 | 0.00 | 0.00 | 69 | 1017.3 |
| 20260831045932 | 83 | 152 | 1.0 | 6.0 | 0.00 | 0.00 | 0.00 | 68 | 1017.3 |
| 20260831045430 | 83 | 151 | 2.0 | 7.0 | 0.00 | 0.00 | 0.00 | 68 | 1017.2 |
| 20260831044930 | 83 | 134 | 2.0 | 7.0 | 0.00 | 0.00 | 0.00 | 67 | 1017.1 |
| 20260831044429 | 83 | 116 | 2.0 | 10.0 | 0.00 | 0.00 | 0.00 | 67 | 1017.1 |
| 20260831044159 | 83 | 136 | 2.0 | 10.0 | 0.00 | 0.00 | 0.00 | 67 | 1017.1 |
| 20260831043427 | 84 | 159 | 3.0 | 10.0 | 0.00 | 0.00 | 0.00 | 66 | 1017.1 |
| 20260831042926 | 84 | 196 | 4.0 | 10.0 | 0.00 | 0.00 | 0.00 | 66 | 1017.2 |
| 20260831042427 | 84 | 174 | 3.0 | 10.0 | 0.00 | 0.00 | 0.00 | 66 | 1017.1 |
| 20260831042158 | 84 | 164 | 4.0 | 13.0 | 0.00 | 0.00 | 0.00 | 66 | 1017.0 |
| 20260831041426 | 84 | 168 | 4.0 | 13.0 | 0.00 | 0.00 | 0.00 | 66 | 1016.9 |
| 20260831041157 | 85 | 121 | 3.0 | 8.0 | 0.00 | 0.00 | 0.00 | 65 | 1017.0 |
| 20260831040426 | 85 | 74 | 2.0 | 9.0 | 0.00 | 0.00 | 0.00 | 64 | 1016.9 |
| 20260831035927 | 85 | 121 | 3.0 | 9.0 | 0.00 | 0.00 | 0.00 | 64 | 1016.7 |
| 20260831035427 | 85 | 144 | 3.0 | 8.0 | 0.00 | 0.00 | 0.00 | 64 | 1016.6 |
| 20260831034926 | 85 | 146 | 3.0 | 7.0 | 0.00 | 0.00 | 0.00 | 63 | 1016.6 |
| 20260831034426 | 85 | 123 | 2.0 | 9.0 | 0.00 | 0.00 | 0.00 | 63 | 1016.6 |
| 20260831033926 | 85 | 127 | 2.0 | 9.0 | 0.00 | 0.00 | 0.00 | 63 | 1016.6 |
| 20260831033427 | 86 | 128 | 2.0 | 6.0 | 0.00 | 0.00 | 0.00 | 63 | 1016.6 |
| 20260831032925 | 86 | 115 | 2.0 | 12.0 | 0.00 | 0.00 | 0.00 | 63 | 1016.5 |
| 20260831032420 | 86 | 182 | 3.0 | 12.0 | 0.00 | 0.00 | 0.00 | 63 | 1016.5 |
| 20260831031914 | 86 | 163 | 3.0 | 10.0 | 0.00 | 0.00 | 0.00 | 63 | 1016.5 |
| 20260831031407 | 86 | 125 | 3.0 | 7.0 | 0.00 | 0.00 | 0.00 | 63 | 1016.5 |
| 20260831030902 | 87 | 125 | 2.0 | 9.0 | 0.00 | 0.00 | 0.00 | 63 | 1016.3 |
| 20260831030635 | 87 | 165 | 2.0 | 9.0 | 0.00 | 0.00 | 0.00 | 63 | 1016.2 |
| 20260831025853 | 87 | 175 | 2.0 | 9.0 | 0.00 | 0.00 | 0.00 | 63 | 1016.2 |
| 20260831025353 | 87 | 176 | 2.0 | 9.0 | 0.00 | 0.00 | 0.00 | 63 | 1016.1 |
| 20260831024853 | 87 | 138 | 2.0 | 9.0 | 0.00 | 0.00 | 0.00 | 62 | 1016.0 |
| 20260831024352 | 87 | 133 | 2.0 | 6.0 | 0.00 | 0.00 | 0.00 | 63 | 1015.9 |
| 20260831023852 | 87 | 152 | 3.0 | 8.0 | 0.00 | 0.00 | 0.00 | 62 | 1015.8 |
| 20260831023351 | 88 | 167 | 3.0 | 10.0 | 0.00 | 0.00 | 0.00 | 62 | 1015.9 |
| 20260831022848 | 88 | 111 | 3.0 | 10.0 | 0.00 | 0.00 | 0.00 | 62 | 1015.7 |
| 20260831022349 | 88 | 105 | 2.0 | 9.0 | 0.00 | 0.00 | 0.00 | 62 | 1015.4 |
| 20260831021848 | 88 | 128 | 2.0 | 7.0 | 0.00 | 0.00 | 0.00 | 61 | 1015.3 |
| 20260831021347 | 88 | 131 | 2.0 | 7.0 | 0.00 | 0.00 | 0.00 | 61 | 1015.0 |
| 20260831020849 | 89 | 137 | 2.0 | 10.0 | 0.00 | 0.00 | 0.00 | 60 | 1015.0 |
| 20260831020346 | 89 | 185 | 2.0 | 10.0 | 0.00 | 0.00 | 0.00 | 60 | 1014.9 |
| 20260831015846 | 89 | 101 | 2.0 | 9.0 | 0.00 | 0.00 | 0.00 | 59 | 1014.9 |
| 20260831015618 | 89 | 154 | 2.0 | 8.0 | 0.00 | 0.00 | 0.00 | 59 | 1014.8 |
| 20260831014847 | 89 | 123 | 3.0 | 9.0 | 0.00 | 0.00 | 0.00 | 59 | 1014.8 |
| 20260831014345 | 89 | 128 | 3.0 | 9.0 | 0.00 | 0.00 | 0.00 | 58 | 1014.7 |
| 20260831013843 | 89 | 132 | 3.0 | 9.0 | 0.00 | 0.00 | 0.00 | 58 | 1014.6 |
| 20260831013338 | 89 | 157 | 2.0 | 8.0 | 0.00 | 0.00 | 0.00 | 57 | 1014.6 |
| 20260831012831 | 89 | 128 | 1.0 | 8.0 | 0.00 | 0.00 | 0.00 | 56 | 1014.4 |
| 20260831012327 | 89 | 107 | 0.0 | 4.0 | 0.00 | 0.00 | 0.00 | 54 | 1014.3 |
| 20260831011820 | 90 | 164 | 0.0 | 0.0 | 0.00 | 0.00 | 0.00 | 53 | 1014.3 |
| 20260831011314 | 90 | 164 | 0.0 | 0.0 | 0.00 | 0.00 | 0.00 | 53 | 1014.3 |
| 20260831010808 | 90 | 164 | 0.0 | 0.0 | 0.00 | 0.00 | 0.00 | 52 | 1014.3 |
| 20260831010303 | 91 | 164 | 0.0 | 0.0 | 0.00 | 0.00 | 0.00 | 52 | 1014.2 |
| 20260831005756 | 91 | 164 | 0.0 | 0.0 | 0.00 | 0.00 | 0.00 | 52 | 1014.2 |
| 20260831005250 | 91 | 164 | 0.0 | 0.0 | 0.00 | 0.00 | 0.00 | 51 | 1014.2 |
| 20260831004744 | 92 | 164 | 0.0 | 0.0 | 0.00 | 0.00 | 0.00 | 50 | 1014.1 |
| 20260831004238 | 92 | 164 | 0.0 | 1.0 | 0.00 | 0.00 | 0.00 | 50 | 1014.1 |
| 20260831003732 | 92 | 164 | 0.0 | 1.0 | 0.00 | 0.00 | 0.00 | 49 | 1014.0 |
| 20260831003226 | 92 | 164 | 0.0 | 5.0 | 0.00 | 0.00 | 0.00 | 49 | 1014.0 |
| 20260831002719 | 92 | 164 | 1.0 | 5.0 | 0.00 | 0.00 | 0.00 | 49 | 1014.0 |
| 20260831002214 | 93 | 164 | 1.0 | 5.0 | 0.00 | 0.00 | 0.00 | 48 | 1014.0 |
| 20260831001708 | 93 | 164 | 1.0 | 5.0 | 0.00 | 0.00 | 0.00 | 48 | 1014.0 |
| 20260831001432 | 93 | 165 | 1.0 | 7.0 | 0.00 | 0.00 | 0.00 | 47 | 1014.0 |
| 20260831000656 | 93 | 164 | 2.0 | 7.0 | 0.00 | 0.00 | 0.00 | 47 | 1014.0 |
| 20260831000150 | 94 | 132 | 2.0 | 5.0 | 0.00 | 0.00 | 0.00 | 46 | 1014.0 |
| 20260830235644 | 94 | 128 | 2.0 | 7.0 | 0.00 | 0.00 | 0.00 | 45 | 1014.0 |
| 20260830235138 | 94 | 162 | 2.0 | 7.0 | 0.00 | 0.00 | 0.00 | 46 | 1014.0 |
| 20260830234903 | 94 | 168 | 1.0 | 7.0 | 0.00 | 0.00 | 0.00 | 45 | 1014.1 |
| 20260830234125 | 94 | 128 | 2.0 | 9.0 | 0.00 | 0.00 | 0.00 | 46 | 1014.1 |
| 20260830233620 | 94 | 87 | 2.0 | 9.0 | 0.00 | 0.00 | 0.00 | 45 | 1014.2 |
| 20260830233114 | 94 | 146 | 2.0 | 9.0 | 0.00 | 0.00 | 0.00 | 45 | 1014.0 |
| 20260830232608 | 94 | 120 | 3.0 | 10.0 | 0.00 | 0.00 | 0.00 | 45 | 1014.1 |
| 20260830232334 | 95 | 136 | 2.0 | 10.0 | 0.00 | 0.00 | 0.00 | 45 | 1014.1 |
| 20260830231556 | 95 | 172 | 1.0 | 7.0 | 0.00 | 0.00 | 0.00 | 45 | 1014.1 |
| 20260830231049 | 95 | 146 | 1.0 | 5.0 | 0.00 | 0.00 | 0.00 | 47 | 1014.1 |
| 20260830230544 | 95 | 157 | 2.0 | 6.0 | 0.00 | 0.00 | 0.00 | 46 | 1014.1 |
| 20260830230038 | 95 | 100 | 3.0 | 7.0 | 0.00 | 0.00 | 0.00 | 46 | 1014.1 |
| 20260830225532 | 95 | 111 | 2.0 | 8.0 | 0.00 | 0.00 | 0.00 | 47 | 1014.2 |
| 20260830225025 | 95 | 104 | 2.0 | 8.0 | 0.00 | 0.00 | 0.00 | 47 | 1014.2 |
| 20260830224520 | 95 | 157 | 2.0 | 7.0 | 0.00 | 0.00 | 0.00 | 46 | 1014.3 |
| 20260830224014 | 95 | 153 | 3.0 | 7.0 | 0.00 | 0.00 | 0.00 | 45 | 1014.3 |
| 20260830223508 | 95 | 173 | 2.0 | 9.0 | 0.00 | 0.00 | 0.00 | 46 | 1014.3 |
| 20260830223002 | 95 | 113 | 3.0 | 9.0 | 0.00 | 0.00 | 0.00 | 46 | 1014.4 |
| 20260830222456 | 95 | 167 | 2.0 | 6.0 | 0.00 | 0.00 | 0.00 | 47 | 1014.5 |
| 20260830221949 | 95 | 134 | 3.0 | 7.0 | 0.00 | 0.00 | 0.00 | 48 | 1014.5 |
| 20260830221443 | 95 | 99 | 3.0 | 7.0 | 0.00 | 0.00 | 0.00 | 48 | 1014.5 |
| 20260830220943 | 94 | 121 | 2.0 | 8.0 | 0.00 | 0.00 | 0.00 | 49 | 1014.5 |
| 20260830220444 | 94 | 122 | 2.0 | 8.0 | 0.00 | 0.00 | 0.00 | 50 | 1014.4 |
| 20260830215944 | 94 | 190 | 2.0 | 9.0 | 0.00 | 0.00 | 0.00 | 51 | 1014.5 |
| 20260830215444 | 94 | 150 | 3.0 | 10.0 | 0.00 | 0.00 | 0.00 | 50 | 1014.6 |
| 20260830214943 | 95 | 111 | 3.0 | 10.0 | 0.00 | 0.00 | 0.00 | 48 | 1014.7 |
| 20260830214442 | 95 | 152 | 3.0 | 9.0 | 0.00 | 0.00 | 0.00 | 50 | 1014.7 |
| 20260830213942 | 95 | 97 | 2.0 | 8.0 | 0.00 | 0.00 | 0.00 | 49 | 1014.6 |
| 20260830213442 | 95 | 161 | 3.0 | 8.0 | 0.00 | 0.00 | 0.00 | 49 | 1014.8 |
| 20260830212942 | 95 | 127 | 3.0 | 9.0 | 0.00 | 0.00 | 0.00 | 49 | 1014.9 |
| 20260830212442 | 96 | 95 | 2.0 | 8.0 | 0.00 | 0.00 | 0.00 | 49 | 1014.8 |
| 20260830211938 | 96 | 153 | 2.0 | 8.0 | 0.00 | 0.00 | 0.00 | 49 | 1014.9 |
| 20260830211708 | 96 | 344 | 1.0 | 7.0 | 0.00 | 0.00 | 0.00 | 49 | 1014.9 |
| 20260830210938 | 95 | 142 | 1.0 | 7.0 | 0.00 | 0.00 | 0.00 | 50 | 1015.0 |
| 20260830210709 | 94 | 163 | 2.0 | 6.0 | 0.00 | 0.00 | 0.00 | 50 | 1015.2 |
| 20260830205938 | 93 | 116 | 2.0 | 7.0 | 0.00 | 0.00 | 0.00 | 50 | 1015.2 |
| 20260830205440 | 93 | 123 | 3.0 | 11.0 | 0.00 | 0.00 | 0.00 | 50 | 1015.4 |
| 20260830205212 | 93 | 103 | 2.0 | 11.0 | 0.00 | 0.00 | 0.00 | 51 | 1015.5 |
| 20260830204712 | 93 | 74 | 2.0 | 7.0 | 0.00 | 0.00 | 0.00 | 51 | 1015.5 |
| 20260830203941 | 94 | 138 | 3.0 | 10.0 | 0.00 | 0.00 | 0.00 | 50 | 1015.7 |
| 20260830202928 | 95 | 153 | 2.0 | 7.0 | 0.00 | 0.00 | 0.00 | 51 | 1015.8 |
| 20260830202422 | 95 | 187 | 2.0 | 10.0 | 0.00 | 0.00 | 0.00 | 50 | 1015.8 |
| 20260830201915 | 95 | 182 | 2.0 | 10.0 | 0.00 | 0.00 | 0.00 | 50 | 1016.1 |
| 20260830201414 | 95 | 230 | 2.0 | 9.0 | 0.00 | 0.00 | 0.00 | 49 | 1016.1 |
| 20260830200914 | 94 | 150 | 3.0 | 13.0 | 0.00 | 0.00 | 0.00 | 50 | 1016.2 |
| 20260830200644 | 94 | 246 | 2.0 | 13.0 | 0.00 | 0.00 | 0.00 | 51 | 1016.3 |
| 20260830200144 | 94 | 194 | 2.0 | 9.0 | 0.00 | 0.00 | 0.00 | 52 | 1016.5 |
| 20260830195414 | 94 | 94 | 2.0 | 7.0 | 0.00 | 0.00 | 0.00 | 51 | 1016.4 |
| 20260830194914 | 94 | 113 | 2.0 | 13.0 | 0.00 | 0.00 | 0.00 | 51 | 1016.6 |
| 20260830194413 | 94 | 82 | 2.0 | 13.0 | 0.00 | 0.00 | 0.00 | 51 | 1016.7 |
| 20260830193913 | 94 | 119 | 2.0 | 9.0 | 0.00 | 0.00 | 0.00 | 51 | 1016.8 |
| 20260830193413 | 94 | 213 | 2.0 | 9.0 | 0.00 | 0.00 | 0.00 | 51 | 1016.9 |
| 20260830192913 | 93 | 155 | 1.0 | 8.0 | 0.00 | 0.00 | 0.00 | 53 | 1016.9 |
| 20260830192413 | 93 | 113 | 1.0 | 7.0 | 0.00 | 0.00 | 0.00 | 53 | 1016.9 |
| 20260830191914 | 93 | 203 | 2.0 | 9.0 | 0.00 | 0.00 | 0.00 | 55 | 1017.0 |
| 20260830191413 | 92 | 147 | 2.0 | 9.0 | 0.00 | 0.00 | 0.00 | 56 | 1017.1 |
| 20260830190913 | 91 | 154 | 3.0 | 9.0 | 0.00 | 0.00 | 0.00 | 57 | 1017.3 |
| 20260830190413 | 91 | 101 | 3.0 | 7.0 | 0.00 | 0.00 | 0.00 | 56 | 1017.3 |
| 20260830185908 | 92 | 117 | 3.0 | 9.0 | 0.00 | 0.00 | 0.00 | 56 | 1017.4 |
| 20260830185633 | 92 | 224 | 2.0 | 9.0 | 0.00 | 0.00 | 0.00 | 56 | 1017.4 |
| 20260830184855 | 92 | 132 | 2.0 | 8.0 | 0.00 | 0.00 | 0.00 | 56 | 1017.4 |
| 20260830184349 | 91 | 92 | 2.0 | 8.0 | 0.00 | 0.00 | 0.00 | 57 | 1017.5 |
| 20260830183843 | 91 | 227 | 2.0 | 7.0 | 0.00 | 0.00 | 0.00 | 56 | 1017.5 |